This is the latest recevied weather packets stored in our database for station/object AA1FF. If no packets are shown the sender has not sent any weather packets the latest 10 day(s).
| Time | Temp. | Humidity | Pressure | Rain* | Wind** | Luminosity | Snow |
|---|---|---|---|---|---|---|---|
| 1777657125 | 14.44° C | 41% | 1010 hPa | 0 mm | - | 185 W/m² | - |
| 1777656826 | 14.44° C | 40% | 1010 hPa | 0 mm | - | 882 W/m² | - |
| 1777656525 | 14.44° C | 43% | 1010 hPa | 0 mm | - | 1030 W/m² | - |
| 1777656225 | 14.44° C | 44% | 1010 hPa | 0 mm | - | 571 W/m² | - |
| 1777655924 | 14.44° C | 42% | 1010 hPa | 0 mm | - | 840 W/m² | - |
| 1777655626 | 14.44° C | 41% | 1010 hPa | 0 mm | - | 1004 W/m² | - |
| 1777655325 | 13.89° C | 44% | 1010 hPa | 0 mm | - | 1027 W/m² | - |
| 1777655023 | 14.44° C | 44% | 1010 hPa | 0 mm | - | 531 W/m² | - |
| 1777654726 | 14.44° C | 45% | 1010 hPa | 0 mm | - | 1019 W/m² | - |
| 1777654424 | 13.89° C | 44% | 1010 hPa | 0 mm | - | 1007 W/m² | - |
| 1777654126 | 13.33° C | 47% | 1010 hPa | 0 mm | - | 848 W/m² | - |
| 1777653823 | 13.33° C | 47% | 1010 hPa | 0 mm | - | 1023 W/m² | - |
| 1777653524 | 13.33° C | 47% | 1010 hPa | 0 mm | - | 1092 W/m² | - |
| 1777653224 | 13.33° C | 47% | 1010 hPa | 0 mm | - | 359 W/m² | - |
| 1777652924 | 13.89° C | 47% | 1010 hPa | 0 mm | - | 485 W/m² | - |
| 1777652624 | 13.89° C | 46% | 1010 hPa | 0 mm | - | 251 W/m² | - |
| 1777652324 | 13.33° C | 47% | 1010 hPa | 0 mm | - | 783 W/m² | - |
| 1777652023 | 12.78° C | 49% | 1010 hPa | 0 mm | - | 1067 W/m² | - |
| 1777651726 | 12.78° C | 52% | 1011 hPa | 0 mm | - | 259 W/m² | - |
| 1777651425 | 12.78° C | 50% | 1011 hPa | 0 mm | - | 1092 W/m² | - |
| 1777651128 | 12.78° C | 52% | 1011 hPa | 0 mm | - | 559 W/m² | - |
| 1777650823 | 13.33° C | 50% | 1011 hPa | 0 mm | - | 575 W/m² | - |
| 1777650238 | 12.78° C | 49% | 1011 hPa | 0 mm | - | 1025 W/m² | - |
| 1777649924 | 12.78° C | 50% | 1011 hPa | 0 mm | - | 901 W/m² | - |
| 1777649625 | 12.78° C | 51% | 1011 hPa | 0 mm | - | 934 W/m² | - |
* Rain latest hour (hover to see other rain measurements)
** Current wind speed in m/s (hover to see current wind gust speed)